This demonstration page uses our WeatherBlox Daily Observations layout. Learn more.

Left ArrowRight Arrow

41.55636, -103.73856

Hourly Observations for March 28, 2021

Temp ( °F °C ) Dew Point ( °F °C ) Humidity (%) Winds ( mph kmh ) Pressure ( in mb ) Visibility ( mi km ) Precip ( " mm )
12:58 am 00:58 Clear 30 -1 23 -4.9 75 75 WSW 9 15 30.32 1027 10 16 0.00 0.00
1:58 am 01:58 Clear 31 -0.8 23 -5 74 74 WSW 13 20 30.31 1026 10 16 0.00 0.00
2:58 am 02:58 Clear 29 -1.5 22 -5.4 75 75 SW 15 24 30.30 1026 10 16 0.00 0.00
3:58 am 03:58 Clear 29 -1.7 22 -5.5 76 76 SW 16 26 30.29 1026 10 16 0.00 0.00
4:58 am 04:58 Clear 29 -1.7 21 -6 73 73 WSW 22 35 30.28 1025 10 16 0.00 0.00
5:58 am 05:58 Clear 30 -0.9 22 -5.7 70 70 WSW 20 31 30.25 1025 10 16 0.00 0.00
6:58 am 06:58 Sunny 30 -0.9 22 -5.8 70 70 WSW 17 28 30.26 1025 10 16 0.00 0.00
7:58 am 07:58 Sunny 32 0.1 22 -5.4 67 67 W 13 20 30.27 1025 10 16 0.00 0.00
8:58 am 08:58 Sunny 37 2.9 25 -4 61 61 W 15 24 30.24 1024 10 16 0.00 0.00
9:58 am 09:58 Sunny 42 5.7 26 -3.6 52 52 W 24 39 30.23 1024 10 16 0.00 0.00
10:58 am 10:58 Sunny 45 7.3 25 -4.1 45 45 WNW 36 57 30.21 1023 10 16 0.00 0.00
11:58 am 11:58 Sunny 46 7.7 26 -3.5 45 45 WNW 31 50 30.19 1023 10 16 0.00 0.00
12:58 pm 12:58 Sunny 48 8.7 26 -3.1 44 44 W 30 48 30.16 1021 10 16 0.00 0.00
1:58 pm 13:58 Sunny 49 9.4 27 -2.6 43 43 W 30 48 30.14 1021 10 16 0.00 0.00
2:58 pm 14:58 Sunny 49 9.7 29 -1.9 45 45 W 24 39 30.11 1020 10 16 0.00 0.00
3:58 pm 15:58 Sunny 52 11 29 -1.8 41 41 W 24 39 30.07 1018 10 16 0.00 0.00
4:58 pm 16:58 Sunny 51 10.8 28 -2.4 40 40 W 18 30 30.05 1018 10 16 0.00 0.00
5:58 pm 17:58 Sunny 52 11.1 29 -1.9 41 41 WSW 16 26 30.03 1017 10 16 0.00 0.00
6:58 pm 18:58 Sunny 48 8.7 27 -2.6 45 45 WSW 17 28 30.02 1017 10 16 0.00 0.00
7:58 pm 19:58 Clear 47 8.5 25 -3.7 42 42 WSW 15 24 30.01 1016 10 16 0.00 0.00
8:58 pm 20:58 Clear 46 7.9 26 -3.3 45 45 WSW 18 30 29.97 1015 10 16 0.00 0.00
9:58 pm 21:58 Clear 47 8.4 25 -4.1 41 41 WSW 23 37 29.92 1013 10 16 0.00 0.00
10:58 pm 22:58 Clear 44 6.7 24 -4.3 46 46 SW 16 26 29.90 1013 10 16 0.00 0.00
11:58 pm 23:58 Clear 46 7.5 24 -4.6 42 42 SW 21 33 29.85 1011 10 16 0.00 0.00

Powered by AerisWeather